Home   Weather   Lucerne   Past weeks

Flag for Switzerland Past Weather in Lucerne, Lucerne, Switzerland — Yesterday and Last 2 Weeks

Now
24 °F

Cold.


Feels Like: 24 °F
Forecast: 19 / 25 °F
Wind: 1 mph from West

Location: Giswil

Current Time: Jan 16, 2017 at 11:56:37 am

Latest Report: Jan 16, 2017 at 11:00 am


Visibility: N/A

Pressure: 30.27 "Hg

Humidity: 95%

Dew Point: 23 °F

Location of LucerneLocation

Past Weather in Lucerne — Graph

°F

Lucerne Temperature Yesterday

Maximum temperature yesterday: 32 °F (at 3:00 pm)
Minimum temperature yesterday: 20 °F (at 12:00 am)
Average temperature yesterday: 27 °F

High & Low Weather Summary for the Past Weeks

 TemperatureHumidityPressure
High45 °F (Jan 13, 1:00 am)100% (Jan 1, 1:00 pm)30.75 "Hg (Jan 1, 1:00 pm)
Low4 °F (Jan 7, 2:00 am)49% (Jan 11, 5:00 pm)29.50 "Hg (Jan 13, 1:00 am)
Average28 °F91%30.26 "Hg
* Reported Jan 1 10:00 am — Jan 16 10:00 am, Lucerne, Weather by CustomWeather, © 2017

Note: Actual official high and low records may vary slightly from our data, if they occured in-between our weather recording intervals... More about our weather records

Advertising

Lucerne Weather History for the Previous 24 Hours

Scroll right to see more
 ConditionsComfort  
Time TempWeatherWind HumidityBarometerVisibility
10:00 am
Mon, Jan 16
23 °FCold.2 mph95%30.27 "HgN/A
9:00 am23 °FCold.2 mph87%30.26 "HgN/A
8:00 am19 °FCold.3 mph93%30.26 "HgN/A
7:00 am23 °FCold.1 mph77%30.24 "HgN/A
6:00 am23 °FCold.1 mph92%30.24 "HgN/A
5:00 am20 °FCold.1 mph99%30.24 "HgN/A
4:00 am21 °FCold.2 mph99%30.24 "HgN/A
3:00 am20 °FCold.1 mph99%30.26 "HgN/A
2:00 am19 °FCold.No wind99%30.26 "HgN/A
1:00 am18 °FCold.1 mph99%30.28 "HgN/A
12:00 am23 °FCold.1 mph100%30.27 "HgN/A
11:00 pm
Sun, Jan 15
26 °FChilly.1 mph99%30.26 "HgN/A
10:00 pm25 °FChilly.1 mph96%30.27 "HgN/A
9:00 pm21 °FCold.2 mph99%30.28 "HgN/A
8:00 pm21 °FCold.1 mph99%30.29 "HgN/A
7:00 pm27 °FChilly.1 mph99%30.27 "HgN/A
6:00 pm26 °FChilly.2 mph99%30.27 "HgN/A
5:00 pm29 °FChilly.1 mph98%30.26 "HgN/A
4:00 pm32 °FChilly.2 mph77%30.24 "HgN/A
3:00 pm32 °FChilly.2 mph74%30.23 "HgN/A
2:00 pm32 °FChilly.5 mph76%30.23 "HgN/A
1:00 pm32 °FChilly.3 mph77%30.23 "HgN/A
12:00 pm31 °FChilly.7 mph82%30.24 "HgN/A
11:00 am31 °FChilly.10 mph73%30.24 "HgN/A
Weather by CustomWeather, © 2017

See weather overviewHow to use our weather pages